#datetime,building,power
2023-02-28T00:00:00,pth,4.80
2023-02-28T00:02:00,pth,6.00
2023-02-28T00:03:00,pth,2.40
2023-02-28T00:05:00,pth,4.80
2023-02-28T00:06:00,pth,2.40
2023-02-28T00:07:00,pth,3.60
2023-02-28T00:09:00,pth,4.80
2023-02-28T00:10:00,pth,2.40
2023-02-28T00:12:00,pth,3.60
2023-02-28T00:14:00,pth,3.60
2023-02-28T00:15:00,pth,1.20
2023-02-28T00:17:00,pth,3.60
2023-02-28T00:18:00,pth,2.40
2023-02-28T00:20:00,pth,3.60
2023-02-28T00:21:00,pth,2.40
2023-02-28T00:23:00,pth,6.00
2023-02-28T00:25:00,pth,4.80
2023-02-28T00:27:00,pth,4.80
2023-02-28T00:28:00,pth,3.60
2023-02-28T00:30:00,pth,4.80
2023-02-28T00:32:00,pth,4.80
2023-02-28T00:33:00,pth,2.40
2023-02-28T00:35:00,pth,3.60
2023-02-28T00:36:00,pth,2.40
2023-02-28T00:38:00,pth,2.40
2023-02-28T00:39:00,pth,1.20
2023-02-28T00:41:00,pth,3.60
2023-02-28T00:43:00,pth,3.60
2023-02-28T00:44:00,pth,2.40
2023-02-28T00:45:00,pth,2.40
2023-02-28T00:47:00,pth,4.80
2023-02-28T00:49:00,pth,4.80
2023-02-28T00:50:00,pth,3.60
2023-02-28T00:52:00,pth,4.80
2023-02-28T00:53:00,pth,2.40
2023-02-28T00:55:00,pth,6.00
2023-02-28T00:56:00,pth,2.40
2023-02-28T00:57:00,pth,2.40
2023-02-28T00:59:00,pth,4.80
2023-02-28T01:01:00,pth,3.60
2023-02-28T01:03:00,pth,3.60
2023-02-28T01:05:00,pth,2.40
2023-02-28T01:06:00,pth,2.40
2023-02-28T01:07:00,pth,1.20
2023-02-28T01:09:00,pth,3.60
2023-02-28T01:11:00,pth,6.00
2023-02-28T01:12:00,pth,2.40
2023-02-28T01:13:00,pth,2.40
2023-02-28T01:15:00,pth,4.80
2023-02-28T01:16:00,pth,2.40
2023-02-28T01:18:00,pth,4.80
2023-02-28T01:20:00,pth,4.80
2023-02-28T01:21:00,pth,2.40
2023-02-28T01:23:00,pth,4.80
2023-02-28T01:25:00,pth,4.80
2023-02-28T01:27:00,pth,2.40
2023-02-28T01:29:00,pth,3.60
2023-02-28T01:31:00,pth,2.40
2023-02-28T01:33:00,pth,3.60
2023-02-28T01:35:00,pth,3.60
2023-02-28T01:36:00,pth,2.40
2023-02-28T01:38:00,pth,4.80
2023-02-28T01:39:00,pth,2.40
2023-02-28T01:40:00,pth,3.60
2023-02-28T01:42:00,pth,4.80
2023-02-28T01:44:00,pth,4.80
2023-02-28T01:46:00,pth,6.00
2023-02-28T01:48:00,pth,4.80
2023-02-28T01:50:00,pth,4.80
2023-02-28T01:52:00,pth,4.80
2023-02-28T01:54:00,pth,2.40
2023-02-28T01:56:00,pth,3.60
2023-02-28T01:58:00,pth,3.60
2023-02-28T02:00:00,pth,3.60
2023-02-28T02:02:00,pth,3.60
2023-02-28T02:04:00,pth,4.80
2023-02-28T02:06:00,pth,4.80
2023-02-28T02:07:00,pth,2.40
2023-02-28T02:09:00,pth,4.80
2023-02-28T02:10:00,pth,3.60
2023-02-28T02:12:00,pth,4.80
2023-02-28T02:13:00,pth,2.40
2023-02-28T02:15:00,pth,4.80
2023-02-28T02:16:00,pth,2.40
2023-02-28T02:18:00,pth,2.40
2023-02-28T02:20:00,pth,3.60
2023-02-28T02:21:00,pth,1.20
2023-02-28T02:23:00,pth,3.60
2023-02-28T02:24:00,pth,1.20
2023-02-28T02:26:00,pth,4.80
2023-02-28T02:28:00,pth,4.80
2023-02-28T02:29:00,pth,3.60
2023-02-28T02:31:00,pth,4.80
2023-02-28T02:32:00,pth,2.40
2023-02-28T02:33:00,pth,3.60
2023-02-28T02:35:00,pth,4.80
2023-02-28T02:36:00,pth,2.40
2023-02-28T02:38:00,pth,4.80
2023-02-28T02:39:00,pth,2.40
2023-02-28T02:41:00,pth,3.60
2023-02-28T02:42:00,pth,1.20
2023-02-28T02:44:00,pth,2.40
2023-02-28T02:45:00,pth,2.40
2023-02-28T02:46:00,pth,1.19
2023-02-28T02:48:00,pth,2.40
2023-02-28T02:50:00,pth,3.60
2023-02-28T02:52:00,pth,4.80
2023-02-28T02:54:00,pth,4.80
2023-02-28T02:55:00,pth,2.40
2023-02-28T02:56:00,pth,2.40
2023-02-28T02:58:00,pth,4.80
2023-02-28T03:00:00,pth,4.80
2023-02-28T03:01:00,pth,2.40
2023-02-28T03:03:00,pth,6.00
2023-02-28T03:05:00,pth,4.80
2023-02-28T03:06:00,pth,2.40
2023-02-28T03:07:00,pth,2.40
2023-02-28T03:09:00,pth,2.40
2023-02-28T03:11:00,pth,3.60
2023-02-28T03:12:00,pth,1.20
2023-02-28T03:14:00,pth,2.40
2023-02-28T03:15:00,pth,2.40
2023-02-28T03:17:00,pth,2.40
2023-02-28T03:18:00,pth,2.40
2023-02-28T03:20:00,pth,4.80
2023-02-28T03:22:00,pth,4.80
2023-02-28T03:25:00,pth,4.80
2023-02-28T03:26:00,pth,4.80
2023-02-28T03:28:00,pth,4.80
2023-02-28T03:30:00,pth,4.80
2023-02-28T03:31:00,pth,4.80
2023-02-28T03:32:00,pth,3.60
2023-02-28T03:34:00,pth,3.60
2023-02-28T03:36:00,pth,2.40
2023-02-28T03:37:00,pth,1.19
2023-02-28T03:39:00,pth,3.60
2023-02-28T03:40:00,pth,1.20
2023-02-28T03:42:00,pth,3.60
2023-02-28T03:43:00,pth,3.60
2023-02-28T03:45:00,pth,4.80
2023-02-28T03:46:00,pth,2.40
2023-02-28T03:48:00,pth,4.80
2023-02-28T03:50:00,pth,4.80
2023-02-28T03:52:00,pth,4.80
2023-02-28T03:53:00,pth,2.40
2023-02-28T03:55:00,pth,4.80
2023-02-28T03:57:00,pth,3.60
2023-02-28T03:59:00,pth,3.60
2023-02-28T04:01:00,pth,2.40
2023-02-28T04:03:00,pth,2.40
2023-02-28T04:04:00,pth,1.20
2023-02-28T04:06:00,pth,3.60
2023-02-28T04:07:00,pth,2.40
2023-02-28T04:09:00,pth,4.80
2023-02-28T04:10:00,pth,2.40
2023-02-28T04:12:00,pth,4.80
2023-02-28T04:14:00,pth,4.80
2023-02-28T04:16:00,pth,4.80
2023-02-28T04:17:00,pth,2.40
2023-02-28T04:19:00,pth,4.80
2023-02-28T04:21:00,pth,4.80
2023-02-28T04:22:00,pth,1.20
2023-02-28T04:24:00,pth,3.60
2023-02-28T04:26:00,pth,2.40
2023-02-28T04:28:00,pth,3.60
2023-02-28T04:29:00,pth,1.19
2023-02-28T04:30:00,pth,1.20
2023-02-28T04:32:00,pth,4.80
2023-02-28T04:33:00,pth,2.40
2023-02-28T04:35:00,pth,4.80
2023-02-28T04:37:00,pth,4.80
2023-02-28T04:38:00,pth,2.40
2023-02-28T04:40:00,pth,4.80
2023-02-28T04:41:00,pth,3.60
2023-02-28T04:43:00,pth,4.80
2023-02-28T04:45:00,pth,4.80
2023-02-28T04:47:00,pth,3.60
2023-02-28T04:49:00,pth,3.60
2023-02-28T04:50:00,pth,1.20
2023-02-28T04:52:00,pth,3.60
2023-02-28T04:54:00,pth,3.60
2023-02-28T04:56:00,pth,2.40
2023-02-28T04:57:00,pth,2.40
2023-02-28T04:58:00,pth,2.40
2023-02-28T05:00:00,pth,4.80
2023-02-28T05:02:00,pth,6.00
2023-02-28T05:04:00,pth,4.80
2023-02-28T05:06:00,pth,4.80
2023-02-28T05:08:00,pth,6.01
2023-02-28T05:10:00,pth,4.80
2023-02-28T05:12:00,pth,4.80
2023-02-28T05:14:00,pth,2.40
2023-02-28T05:16:00,pth,3.60
2023-02-28T05:17:00,pth,2.40
2023-02-28T05:19:00,pth,2.40
2023-02-28T05:21:00,pth,3.60
2023-02-28T05:23:00,pth,4.80
2023-02-28T05:24:00,pth,2.40
2023-02-28T05:26:00,pth,4.80
2023-02-28T05:27:00,pth,2.40
2023-02-28T05:29:00,pth,6.00
2023-02-28T05:30:00,pth,2.40
2023-02-28T05:32:00,pth,4.80
2023-02-28T05:34:00,pth,4.80
2023-02-28T05:35:00,pth,2.40
2023-02-28T05:36:00,pth,2.40
2023-02-28T05:38:00,pth,3.60
2023-02-28T05:40:00,pth,3.60
2023-02-28T05:42:00,pth,2.40
2023-02-28T05:43:00,pth,2.40
2023-02-28T05:45:00,pth,2.40
2023-02-28T05:47:00,pth,3.60
2023-02-28T05:48:00,pth,2.40
2023-02-28T05:49:00,pth,2.40
2023-02-28T05:51:00,pth,4.80
2023-02-28T05:52:00,pth,2.40
2023-02-28T05:54:00,pth,6.00
2023-02-28T05:56:00,pth,4.80
2023-02-28T05:58:00,pth,4.80
2023-02-28T06:00:00,pth,4.80
2023-02-28T06:02:00,pth,4.80
2023-02-28T06:04:00,pth,4.80
2023-02-28T06:06:00,pth,3.60
2023-02-28T06:08:00,pth,2.40
2023-02-28T06:10:00,pth,3.60
2023-02-28T06:11:00,pth,1.20
2023-02-28T06:12:00,pth,1.20
2023-02-28T06:14:00,pth,2.40
2023-02-28T06:16:00,pth,3.60
2023-02-28T06:18:00,pth,4.80
2023-02-28T06:20:00,pth,4.80
2023-02-28T06:22:00,pth,6.00
2023-02-28T06:23:00,pth,2.40
2023-02-28T06:25:00,pth,4.80
2023-02-28T06:26:00,pth,2.40
2023-02-28T06:28:00,pth,4.80
2023-02-28T06:29:00,pth,1.20
2023-02-28T06:31:00,pth,3.60
2023-02-28T06:33:00,pth,3.60
2023-02-28T06:34:00,pth,1.20
2023-02-28T06:36:00,pth,2.40
2023-02-28T06:38:00,pth,3.60
2023-02-28T06:40:00,pth,3.60
2023-02-28T06:41:00,pth,2.40
2023-02-28T06:43:00,pth,4.80
2023-02-28T06:44:00,pth,1.19
2023-02-28T06:46:00,pth,4.80
2023-02-28T06:47:00,pth,2.40
2023-02-28T06:49:00,pth,3.60
2023-02-28T06:51:00,pth,4.80
2023-02-28T06:53:00,pth,3.60
2023-02-28T06:55:00,pth,3.60
2023-02-28T06:57:00,pth,2.40
2023-02-28T06:58:00,pth,1.20
2023-02-28T07:00:00,pth,2.40
2023-02-28T07:02:00,pth,2.40
2023-02-28T07:04:00,pth,2.40
2023-02-28T07:05:00,pth,1.20
2023-02-28T07:07:00,pth,6.00
2023-02-28T07:09:00,pth,4.80
2023-02-28T07:10:00,pth,2.40
2023-02-28T07:12:00,pth,4.80
2023-02-28T07:14:00,pth,3.60
2023-02-28T07:16:00,pth,4.80
2023-02-28T07:17:00,pth,2.40
2023-02-28T07:18:00,pth,2.40
2023-02-28T07:20:00,pth,3.60
2023-02-28T07:21:00,pth,1.20
2023-02-28T07:23:00,pth,2.40
2023-02-28T07:24:00,pth,1.20
2023-02-28T07:26:00,pth,3.60
2023-02-28T07:27:00,pth,1.20
2023-02-28T07:28:00,pth,1.20
2023-02-28T07:30:00,pth,3.60
2023-02-28T07:32:00,pth,3.60
2023-02-28T07:34:00,pth,4.80
2023-02-28T07:36:00,pth,4.80
2023-02-28T07:38:00,pth,4.80
2023-02-28T07:39:00,pth,2.40
2023-02-28T07:40:00,pth,3.60
2023-02-28T07:42:00,pth,4.80
2023-02-28T07:43:00,pth,2.40
2023-02-28T07:44:00,pth,2.40
2023-02-28T07:46:00,pth,2.40
2023-02-28T07:48:00,pth,3.60
2023-02-28T07:50:00,pth,3.60
2023-02-28T07:52:00,pth,3.60
2023-02-28T07:54:00,pth,3.60
2023-02-28T07:56:00,pth,4.80
2023-02-28T07:57:00,pth,2.40
2023-02-28T07:59:00,pth,4.80
2023-02-28T08:00:00,pth,3.60
2023-02-28T08:01:00,pth,2.40
2023-02-28T08:03:00,pth,4.80
2023-02-28T08:05:00,pth,4.80
2023-02-28T08:07:00,pth,4.80
2023-02-28T08:08:00,pth,2.40
2023-02-28T08:10:00,pth,2.40
2023-02-28T08:12:00,pth,3.60
2023-02-28T08:13:00,pth,1.20
2023-02-28T08:15:00,pth,3.60
2023-02-28T08:16:00,pth,1.20
2023-02-28T08:18:00,pth,3.60
2023-02-28T08:20:00,pth,6.00
2023-02-28T08:22:00,pth,4.80
2023-02-28T08:23:00,pth,2.40
2023-02-28T08:25:00,pth,6.00
2023-02-28T08:27:00,pth,4.80
2023-02-28T08:29:00,pth,6.00
2023-02-28T08:30:00,pth,2.40
2023-02-28T08:33:00,pth,6.01
2023-02-28T08:35:00,pth,3.60
2023-02-28T08:36:00,pth,1.20
2023-02-28T08:38:00,pth,2.40
2023-02-28T08:40:00,pth,3.60
2023-02-28T08:42:00,pth,2.40
2023-02-28T08:44:00,pth,4.80
2023-02-28T08:45:00,pth,2.40
2023-02-28T08:47:00,pth,6.00
2023-02-28T08:49:00,pth,4.80
2023-02-28T08:50:00,pth,2.40
2023-02-28T08:52:00,pth,4.80
2023-02-28T08:53:00,pth,2.40
2023-02-28T08:55:00,pth,4.80
2023-02-28T08:57:00,pth,3.60
2023-02-28T08:59:00,pth,2.40
2023-02-28T09:01:00,pth,3.60
2023-02-28T09:02:00,pth,1.20
2023-02-28T09:04:00,pth,1.20
2023-02-28T09:06:00,pth,2.40
2023-02-28T09:07:00,pth,2.40
2023-02-28T09:08:00,pth,1.20
2023-02-28T09:09:00,pth,2.40
2023-02-28T09:11:00,pth,3.60
2023-02-28T09:12:00,pth,2.40
2023-02-28T09:14:00,pth,6.00
2023-02-28T09:15:00,pth,3.60
2023-02-28T09:17:00,pth,4.80
2023-02-28T09:18:00,pth,2.40
2023-02-28T09:20:00,pth,6.00
2023-02-28T09:22:00,pth,6.00
2023-02-28T09:24:00,pth,2.40
2023-02-28T09:26:00,pth,2.40
2023-02-28T09:28:00,pth,3.60
2023-02-28T09:29:00,pth,1.20
2023-02-28T09:31:00,pth,3.60
2023-02-28T09:32:00,pth,2.40
2023-02-28T09:34:00,pth,4.80
2023-02-28T09:36:00,pth,4.80
2023-02-28T09:38:00,pth,7.20
2023-02-28T09:39:00,pth,3.60
2023-02-28T09:41:00,pth,6.01
2023-02-28T09:42:00,pth,2.40
2023-02-28T09:44:00,pth,6.01
2023-02-28T09:45:00,pth,3.60
2023-02-28T09:47:00,pth,6.00
2023-02-28T09:48:00,pth,4.80
2023-02-28T09:50:00,pth,6.00
2023-02-28T09:52:00,pth,14.40
2023-02-28T09:53:00,pth,7.20
2023-02-28T09:54:00,pth,7.20
2023-02-28T09:56:00,pth,15.60
2023-02-28T09:57:00,pth,7.20
2023-02-28T09:59:00,pth,15.60
2023-02-28T10:01:00,pth,15.60
2023-02-28T10:03:00,pth,14.40
2023-02-28T10:04:00,pth,8.40
2023-02-28T10:06:00,pth,15.60
2023-02-28T10:07:00,pth,8.40
2023-02-28T10:09:00,pth,15.59
2023-02-28T10:10:00,pth,7.20
2023-02-28T10:12:00,pth,15.60
2023-02-28T10:14:00,pth,14.40
2023-02-28T10:15:00,pth,8.40
2023-02-28T10:17:00,pth,15.60
2023-02-28T10:18:00,pth,7.20
2023-02-28T10:20:00,pth,15.60
2023-02-28T10:21:00,pth,7.20
2023-02-28T10:22:00,pth,8.40
2023-02-28T10:24:00,pth,14.40
2023-02-28T10:26:00,pth,16.80
2023-02-28T10:28:00,pth,8.40
2023-02-28T10:29:00,pth,8.40
2023-02-28T10:30:00,pth,7.20
2023-02-28T10:32:00,pth,15.60
2023-02-28T10:33:00,pth,7.20
2023-02-28T10:35:00,pth,9.59
2023-02-28T10:36:00,pth,8.40
2023-02-28T10:38:00,pth,14.40
2023-02-28T10:40:00,pth,6.01
2023-02-28T10:41:00,pth,7.20
2023-02-28T10:43:00,pth,15.60
2023-02-28T10:45:00,pth,9.59
2023-02-28T10:47:00,pth,18.00
2023-02-28T10:49:00,pth,10.80
2023-02-28T10:51:00,pth,4.80
2023-02-28T10:52:00,pth,2.40
2023-02-28T10:53:00,pth,2.40
2023-02-28T10:54:00,pth,2.40
2023-02-28T10:56:00,pth,3.60
2023-02-28T10:58:00,pth,4.80
2023-02-28T10:59:00,pth,1.20
2023-02-28T11:01:00,pth,4.80
2023-02-28T11:03:00,pth,2.40
2023-02-28T11:05:00,pth,1.19
2023-02-28T11:07:00,pth,2.40
2023-02-28T11:09:00,pth,1.20
2023-02-28T11:10:00,pth,1.20
2023-02-28T11:12:00,pth,2.40
2023-02-28T11:14:00,pth,2.40
2023-02-28T11:15:00,pth,2.40
2023-02-28T11:16:00,pth,7.20
2023-02-28T11:18:00,pth,14.40
2023-02-28T11:19:00,pth,7.20
2023-02-28T11:20:00,pth,7.20
2023-02-28T11:22:00,pth,14.40
2023-02-28T11:24:00,pth,14.40
2023-02-28T11:26:00,pth,15.60
2023-02-28T11:28:00,pth,14.40
2023-02-28T11:30:00,pth,14.40
2023-02-28T11:32:00,pth,15.60
2023-02-28T11:33:00,pth,7.20
2023-02-28T11:35:00,pth,14.40
2023-02-28T11:36:00,pth,8.40
2023-02-28T11:37:00,pth,7.20
2023-02-28T11:38:00,pth,7.20
2023-02-28T11:39:00,pth,7.20
2023-02-28T11:41:00,pth,15.60
2023-02-28T11:43:00,pth,15.60
2023-02-28T11:44:00,pth,7.20
2023-02-28T11:45:00,pth,7.20
2023-02-28T11:47:00,pth,15.60
2023-02-28T11:48:00,pth,8.40
2023-02-28T11:50:00,pth,14.40
2023-02-28T11:52:00,pth,14.40
2023-02-28T11:53:00,pth,7.20
2023-02-28T11:55:00,pth,14.40
2023-02-28T11:56:00,pth,7.20
2023-02-28T11:58:00,pth,14.40
2023-02-28T12:00:00,pth,14.41
2023-02-28T12:01:00,pth,4.80
2023-02-28T12:03:00,pth,6.00
2023-02-28T12:04:00,pth,7.20
2023-02-28T12:05:00,pth,8.40
2023-02-28T12:07:00,pth,13.20
2023-02-28T12:08:00,pth,2.40
2023-02-28T12:10:00,pth,10.80
2023-02-28T12:12:00,pth,9.59
2023-02-28T12:13:00,pth,2.40
2023-02-28T12:16:00,pth,4.80
2023-02-28T12:17:00,pth,3.60
2023-02-28T12:19:00,pth,4.80
2023-02-28T12:21:00,pth,3.60
2023-02-28T12:24:00,pth,2.40
2023-02-28T12:25:00,pth,1.20
2023-02-28T12:27:00,pth,2.40
2023-02-28T12:29:00,pth,2.40
2023-02-28T12:31:00,pth,2.40
2023-02-28T12:33:00,pth,2.40
2023-02-28T12:34:00,pth,1.20
2023-02-28T12:36:00,pth,1.20
2023-02-28T12:37:00,pth,1.19
2023-02-28T12:39:00,pth,2.40
2023-02-28T12:41:00,pth,1.20
2023-02-28T12:43:00,pth,1.20
2023-02-28T12:44:00,pth,1.20
2023-02-28T12:45:00,pth,2.40
2023-02-28T12:47:00,pth,3.60
2023-02-28T12:49:00,pth,4.80
2023-02-28T12:51:00,pth,4.80
2023-02-28T12:53:00,pth,2.40
2023-02-28T12:54:00,pth,1.20
2023-02-28T12:56:00,pth,2.40
2023-02-28T12:58:00,pth,1.20
2023-02-28T12:59:00,pth,1.19
2023-02-28T13:01:00,pth,2.40
2023-02-28T13:03:00,pth,1.20
2023-02-28T13:04:00,pth,1.20
2023-02-28T13:06:00,pth,1.20
2023-02-28T13:07:00,pth,1.19
2023-02-28T13:09:00,pth,1.20
2023-02-28T13:10:00,pth,1.20
2023-02-28T13:12:00,pth,1.20
2023-02-28T13:13:00,pth,1.20
2023-02-28T13:15:00,pth,3.60
2023-02-28T13:16:00,pth,2.40
2023-02-28T13:18:00,pth,3.60
2023-02-28T13:20:00,pth,3.60
2023-02-28T13:22:00,pth,2.40
2023-02-28T13:24:00,pth,1.20
2023-02-28T13:25:00,pth,1.19
2023-02-28T13:27:00,pth,1.20
2023-02-28T13:29:00,pth,2.40
2023-02-28T13:32:00,pth,2.40
2023-02-28T13:33:00,pth,1.19
2023-02-28T13:36:00,pth,2.40
2023-02-28T13:38:00,pth,1.20
2023-02-28T13:40:00,pth,1.20
2023-02-28T13:42:00,pth,2.40
2023-02-28T13:43:00,pth,2.40
2023-02-28T13:45:00,pth,3.60
2023-02-28T13:47:00,pth,2.40
2023-02-28T13:48:00,pth,2.40
2023-02-28T13:50:00,pth,2.40
2023-02-28T13:53:00,pth,1.20
2023-02-28T13:54:00,pth,1.19
2023-02-28T13:56:00,pth,1.20
2023-02-28T13:58:00,pth,3.60
2023-02-28T14:00:00,pth,2.40
2023-02-28T14:03:00,pth,2.40
2023-02-28T14:05:00,pth,1.20
2023-02-28T14:06:00,pth,1.20
2023-02-28T14:08:00,pth,2.40
2023-02-28T14:10:00,pth,3.60
2023-02-28T14:12:00,pth,3.60
2023-02-28T14:14:00,pth,3.60
2023-02-28T14:16:00,pth,4.80
2023-02-28T14:17:00,pth,2.40
2023-02-28T14:18:00,pth,2.40
2023-02-28T14:20:00,pth,2.40
2023-02-28T14:22:00,pth,2.40
2023-02-28T14:24:00,pth,4.80
2023-02-28T14:25:00,pth,1.19
2023-02-28T14:27:00,pth,2.40
2023-02-28T14:29:00,pth,2.40
2023-02-28T14:31:00,pth,2.40
2023-02-28T14:33:00,pth,2.40
2023-02-28T14:35:00,pth,2.40
2023-02-28T14:36:00,pth,2.40
2023-02-28T14:38:00,pth,3.60
2023-02-28T14:39:00,pth,2.40
2023-02-28T14:41:00,pth,3.60
2023-02-28T14:42:00,pth,2.40
2023-02-28T14:44:00,pth,2.40
2023-02-28T14:45:00,pth,1.19
2023-02-28T14:47:00,pth,1.20
2023-02-28T14:48:00,pth,1.20
2023-02-28T14:50:00,pth,2.40
2023-02-28T14:51:00,pth,1.20
2023-02-28T14:53:00,pth,2.40
2023-02-28T14:55:00,pth,1.20
2023-02-28T14:56:00,pth,1.20
2023-02-28T14:58:00,pth,2.40
2023-02-28T14:59:00,pth,1.19
2023-02-28T15:01:00,pth,2.40
2023-02-28T15:03:00,pth,3.60
2023-02-28T15:05:00,pth,3.60
2023-02-28T15:07:00,pth,4.80
2023-02-28T15:08:00,pth,1.19
2023-02-28T15:10:00,pth,4.80
2023-02-28T15:12:00,pth,2.40
2023-02-28T15:14:00,pth,1.20
2023-02-28T15:15:00,pth,1.20
2023-02-28T15:16:00,pth,1.20
2023-02-28T15:18:00,pth,2.40
2023-02-28T15:21:00,pth,2.40
2023-02-28T15:23:00,pth,1.20
2023-02-28T15:25:00,pth,1.20
2023-02-28T15:26:00,pth,1.20
2023-02-28T15:28:00,pth,1.20
2023-02-28T15:30:00,pth,3.60
2023-02-28T15:32:00,pth,3.60
2023-02-28T15:34:00,pth,3.60
2023-02-28T15:36:00,pth,3.60
2023-02-28T15:37:00,pth,2.40
2023-02-28T15:39:00,pth,2.40
2023-02-28T15:41:00,pth,2.40
2023-02-28T15:42:00,pth,1.20
2023-02-28T15:44:00,pth,1.19
2023-02-28T15:45:00,pth,1.20
2023-02-28T15:47:00,pth,2.40
2023-02-28T15:49:00,pth,1.20
2023-02-28T15:50:00,pth,1.20
2023-02-28T15:51:00,pth,1.19
2023-02-28T15:53:00,pth,1.20
2023-02-28T15:54:00,pth,1.20
2023-02-28T15:56:00,pth,3.60
2023-02-28T15:58:00,pth,3.60
2023-02-28T16:00:00,pth,4.80
2023-02-28T16:02:00,pth,3.60
2023-02-28T16:04:00,pth,3.60
2023-02-28T16:06:00,pth,2.40
2023-02-28T16:07:00,pth,1.20
2023-02-28T16:09:00,pth,2.40
2023-02-28T16:11:00,pth,1.20
2023-02-28T16:13:00,pth,2.40
2023-02-28T16:15:00,pth,2.40
2023-02-28T16:16:00,pth,1.20
2023-02-28T16:18:00,pth,1.20
2023-02-28T16:19:00,pth,1.20
2023-02-28T16:21:00,pth,2.40
2023-02-28T16:23:00,pth,4.80
2023-02-28T16:25:00,pth,6.00
2023-02-28T16:26:00,pth,2.40
2023-02-28T16:27:00,pth,2.40
2023-02-28T16:29:00,pth,4.80
2023-02-28T16:31:00,pth,2.40
2023-02-28T16:33:00,pth,2.40
2023-02-28T16:35:00,pth,2.40
2023-02-28T16:37:00,pth,2.40
2023-02-28T16:39:00,pth,2.40
2023-02-28T16:41:00,pth,2.40
2023-02-28T16:42:00,pth,1.19
2023-02-28T16:44:00,pth,2.40
2023-02-28T16:45:00,pth,1.20
2023-02-28T16:47:00,pth,4.80
2023-02-28T16:49:00,pth,3.60
2023-02-28T16:51:00,pth,4.80
2023-02-28T16:53:00,pth,3.60
2023-02-28T16:54:00,pth,3.60
2023-02-28T16:55:00,pth,4.80
2023-02-28T16:57:00,pth,2.40
2023-02-28T16:59:00,pth,2.40
2023-02-28T17:02:00,pth,2.40
2023-02-28T17:04:00,pth,2.40
2023-02-28T17:05:00,pth,1.20
2023-02-28T17:07:00,pth,2.40
2023-02-28T17:09:00,pth,2.40
2023-02-28T17:11:00,pth,2.40
2023-02-28T17:13:00,pth,4.80
2023-02-28T17:15:00,pth,3.60
2023-02-28T17:17:00,pth,4.80
2023-02-28T17:19:00,pth,3.60
2023-02-28T17:20:00,pth,2.40
2023-02-28T17:22:00,pth,2.40
2023-02-28T17:24:00,pth,1.20
2023-02-28T17:26:00,pth,2.40
2023-02-28T17:28:00,pth,1.20
2023-02-28T17:29:00,pth,1.20
2023-02-28T17:31:00,pth,2.40
2023-02-28T17:32:00,pth,1.19
2023-02-28T17:34:00,pth,1.20
2023-02-28T17:35:00,pth,2.40
2023-02-28T17:36:00,pth,1.20
2023-02-28T17:38:00,pth,4.80
2023-02-28T17:40:00,pth,4.80
2023-02-28T17:42:00,pth,4.80
2023-02-28T17:44:00,pth,3.60
2023-02-28T17:46:00,pth,4.80
2023-02-28T17:48:00,pth,3.60
2023-02-28T17:50:00,pth,2.40
2023-02-28T17:52:00,pth,3.60
2023-02-28T17:53:00,pth,1.19
2023-02-28T17:55:00,pth,2.40
2023-02-28T17:57:00,pth,2.40
2023-02-28T17:59:00,pth,2.40
2023-02-28T18:01:00,pth,3.60
2023-02-28T18:03:00,pth,4.80
2023-02-28T18:05:00,pth,3.60
2023-02-28T18:07:00,pth,4.80
2023-02-28T18:08:00,pth,1.20
2023-02-28T18:10:00,pth,3.60
2023-02-28T18:12:00,pth,3.60
2023-02-28T18:13:00,pth,1.20
2023-02-28T18:14:00,pth,1.20
2023-02-28T18:16:00,pth,1.20
2023-02-28T18:17:00,pth,1.19
2023-02-28T18:19:00,pth,2.40
2023-02-28T18:20:00,pth,1.20
2023-02-28T18:22:00,pth,2.40
2023-02-28T18:24:00,pth,2.40
2023-02-28T18:25:00,pth,1.20
2023-02-28T18:27:00,pth,3.60
2023-02-28T18:29:00,pth,3.60
2023-02-28T18:31:00,pth,4.80
2023-02-28T18:32:00,pth,2.40
2023-02-28T18:34:00,pth,3.60
2023-02-28T18:35:00,pth,2.40
2023-02-28T18:37:00,pth,2.40
2023-02-28T18:39:00,pth,2.40
2023-02-28T18:41:00,pth,2.40
2023-02-28T18:42:00,pth,1.20
2023-02-28T18:44:00,pth,2.40
2023-02-28T18:46:00,pth,2.40
2023-02-28T18:47:00,pth,1.19
2023-02-28T18:49:00,pth,2.40
2023-02-28T18:51:00,pth,2.40
2023-02-28T18:52:00,pth,1.20
2023-02-28T18:54:00,pth,4.80
2023-02-28T18:55:00,pth,2.40
2023-02-28T18:57:00,pth,3.60
2023-02-28T18:59:00,pth,4.80
2023-02-28T19:01:00,pth,3.60
2023-02-28T19:02:00,pth,1.20
2023-02-28T19:04:00,pth,2.40
2023-02-28T19:05:00,pth,1.19
2023-02-28T19:07:00,pth,3.60
2023-02-28T19:08:00,pth,1.20
2023-02-28T19:10:00,pth,2.40
2023-02-28T19:12:00,pth,2.40
2023-02-28T19:14:00,pth,2.40
2023-02-28T19:16:00,pth,3.60
2023-02-28T19:17:00,pth,1.20
2023-02-28T19:19:00,pth,4.80
2023-02-28T19:21:00,pth,4.80
2023-02-28T19:23:00,pth,4.80
2023-02-28T19:25:00,pth,4.80
2023-02-28T19:27:00,pth,4.80
2023-02-28T19:29:00,pth,2.40
2023-02-28T19:31:00,pth,3.60
2023-02-28T19:33:00,pth,2.40
2023-02-28T19:34:00,pth,1.20
2023-02-28T19:36:00,pth,2.40
2023-02-28T19:37:00,pth,2.40
2023-02-28T19:39:00,pth,2.40
2023-02-28T19:40:00,pth,1.20
2023-02-28T19:42:00,pth,3.60
2023-02-28T19:43:00,pth,2.40
2023-02-28T19:45:00,pth,4.80
2023-02-28T19:47:00,pth,4.80
2023-02-28T19:48:00,pth,2.40
2023-02-28T19:50:00,pth,4.80
2023-02-28T19:52:00,pth,4.80
2023-02-28T19:53:00,pth,1.20
2023-02-28T19:55:00,pth,2.40
2023-02-28T19:57:00,pth,2.40
2023-02-28T19:59:00,pth,2.40
2023-02-28T20:00:00,pth,1.20
2023-02-28T20:01:00,pth,1.20
2023-02-28T20:03:00,pth,2.40
2023-02-28T20:05:00,pth,3.60
2023-02-28T20:07:00,pth,3.60
2023-02-28T20:08:00,pth,2.40
2023-02-28T20:10:00,pth,4.80
2023-02-28T20:11:00,pth,4.80
2023-02-28T20:13:00,pth,6.00
2023-02-28T20:15:00,pth,4.80
2023-02-28T20:17:00,pth,4.80
2023-02-28T20:19:00,pth,2.40
2023-02-28T20:20:00,pth,1.20
2023-02-28T20:21:00,pth,1.20
2023-02-28T20:23:00,pth,2.40
2023-02-28T20:24:00,pth,1.19
2023-02-28T20:26:00,pth,3.60
2023-02-28T20:28:00,pth,2.40
2023-02-28T20:29:00,pth,1.19
2023-02-28T20:31:00,pth,2.40
2023-02-28T20:33:00,pth,4.80
2023-02-28T20:35:00,pth,4.80
2023-02-28T20:37:00,pth,3.60
2023-02-28T20:39:00,pth,4.80
2023-02-28T20:41:00,pth,4.80
2023-02-28T20:43:00,pth,2.40
2023-02-28T20:45:00,pth,2.40
2023-02-28T20:47:00,pth,2.40
2023-02-28T20:49:00,pth,3.60
2023-02-28T20:51:00,pth,2.40
2023-02-28T20:53:00,pth,1.20
2023-02-28T20:55:00,pth,2.40
2023-02-28T20:56:00,pth,2.40
2023-02-28T20:58:00,pth,3.60
2023-02-28T21:00:00,pth,3.60
2023-02-28T21:02:00,pth,4.80
2023-02-28T21:04:00,pth,3.60
2023-02-28T21:06:00,pth,4.80
2023-02-28T21:07:00,pth,1.20
2023-02-28T21:09:00,pth,2.40
2023-02-28T21:11:00,pth,2.40
2023-02-28T21:13:00,pth,2.40
2023-02-28T21:14:00,pth,1.20
2023-02-28T21:15:00,pth,1.19
2023-02-28T21:17:00,pth,3.60
2023-02-28T21:19:00,pth,2.40
2023-02-28T21:20:00,pth,2.40
2023-02-28T21:22:00,pth,4.80
2023-02-28T21:24:00,pth,3.60
2023-02-28T21:26:00,pth,4.80
2023-02-28T21:27:00,pth,2.40
2023-02-28T21:29:00,pth,4.80
2023-02-28T21:30:00,pth,2.40
2023-02-28T21:32:00,pth,3.60
2023-02-28T21:33:00,pth,2.40
2023-02-28T21:35:00,pth,2.40
2023-02-28T21:37:00,pth,3.60
2023-02-28T21:39:00,pth,2.40
2023-02-28T21:41:00,pth,2.40
2023-02-28T21:43:00,pth,2.40
2023-02-28T21:44:00,pth,1.20
2023-02-28T21:46:00,pth,4.80
2023-02-28T21:48:00,pth,4.80
2023-02-28T21:50:00,pth,4.80
2023-02-28T21:51:00,pth,2.40
2023-02-28T21:53:00,pth,4.80
2023-02-28T21:55:00,pth,4.80
2023-02-28T21:57:00,pth,4.80
2023-02-28T21:59:00,pth,2.40
2023-02-28T22:00:00,pth,2.40
2023-02-28T22:02:00,pth,2.40
2023-02-28T22:03:00,pth,2.40
2023-02-28T22:05:00,pth,3.60
2023-02-28T22:07:00,pth,3.60
2023-02-28T22:08:00,pth,2.40
2023-02-28T22:10:00,pth,4.80
2023-02-28T22:12:00,pth,4.80
2023-02-28T22:13:00,pth,3.60
2023-02-28T22:15:00,pth,4.80
2023-02-28T22:17:00,pth,6.01
2023-02-28T22:18:00,pth,2.40
2023-02-28T22:20:00,pth,4.80
2023-02-28T22:22:00,pth,2.40
2023-02-28T22:24:00,pth,3.60
2023-02-28T22:25:00,pth,1.20
2023-02-28T22:27:00,pth,2.40
2023-02-28T22:28:00,pth,1.20
2023-02-28T22:30:00,pth,3.60
2023-02-28T22:32:00,pth,2.40
2023-02-28T22:34:00,pth,6.01
2023-02-28T22:36:00,pth,4.80
2023-02-28T22:38:00,pth,4.80
2023-02-28T22:40:00,pth,6.01
2023-02-28T22:42:00,pth,4.80
2023-02-28T22:44:00,pth,4.80
2023-02-28T22:46:00,pth,3.60
2023-02-28T22:48:00,pth,2.40
2023-02-28T22:49:00,pth,1.20
2023-02-28T22:51:00,pth,2.40
2023-02-28T22:52:00,pth,1.20
2023-02-28T22:54:00,pth,2.40
2023-02-28T22:56:00,pth,3.60
2023-02-28T22:58:00,pth,3.60
2023-02-28T23:00:00,pth,4.80
2023-02-28T23:02:00,pth,4.80
2023-02-28T23:04:00,pth,4.80
2023-02-28T23:05:00,pth,2.40
2023-02-28T23:07:00,pth,4.80